Location: B?dimalle
(17.1788°N, 80.5377°E)
Time: 12:30:52
(UTC+00:00)

Courier 1B Rocket - Pass Details

Date: 18 December 2025
Orbit: 920 x 1201 km, 28.2° (Epoch: 25 January)

Event Time Altitude Azimuth Distance (km) Brightness Sun altitude
Exits shadow 22:47:11 20° 200° (SSW) 2,101 6.7 -30.9°
Drops below altitude 10° 22:50:53 10° 166° (SSE) 2,711 7.7 -30.1°
Sets 22:54:08 0° 150° (SSE) 3,617 8.6 -29.4°
